RH
8 8 8 8 7 8 8 8 8 8 8 8 8 9 9 10 10 11 12 14 14 15 16 16 16 16 14 11 7 5 4 3 3 2 2 2 3 3 3 3 3 3 5 6 13 29 39 44 45 40 38 35 32 31 30 31 40 54 62 65 63 60 69 75 75 81 92 90 76 66 52 32 24 21 15 11 10 12 18 22 20 16 13 14 14 13 16 16
8 8 8 7 7 7 8 8 8 8 8 8 9 9 10 10 10 11 12 14 15 16 16 17 18 19 18 15 12 8 5 4 3 3 2 2 3 3 3 3 3 3 5 6 12 26 35 39 45 41 36 38 35 33 34 35 40 52 55 57 61 59 63 72 76 80 89 92 79 68 56 37 28 25 23 17 13 13 15 20 22 18 13 12 12 14 16 18
7 7 7 7 7 7 7 8 8 8 9 9 9 9 10 10 11 11 12 13 15 16 17 17 18 20 21 20 16 13 8 6 4 3 3 3 3 3 3 3 3 3 4 6 8 19 32 40 46 43 37 41 40 36 40 40 41 46 42 45 57 59 60 66 73 79 89 94 80 69 60 41 29 27 29 24 15 14 15 19 23 22 16 12 13 15 18 20
7 7 7 7 7 7 7 7 8 8 9 9 9 10 10 11 12 12 13 13 14 16 18 18 18 20 23 24 21 17 12 8 6 4 3 3 3 3 3 3 3 3 4 5 7 17 34 45 49 45 40 42 41 40 44 42 40 41 36 44 55 56 59 64 72 83 94 98 82 70 63 43 28 28 27 19 18 17 14 19 23 25 19 13 13 14 19 21
7 7 7 7 7 7 7 7 8 8 8 9 9 10 11 11 13 14 15 15 15 16 17 19 20 20 23 26 25 21 16 12 8 6 4 4 3 3 3 3 3 2 3 5 7 18 37 49 51 47 43 42 40 41 45 41 39 40 38 48 56 55 62 68 74 85 96 99 84 70 63 45 29 27 18 12 27 24 9 15 22 24 19 13 13 14 18 20
7 7 7 7 7 6 7 7 8 8 8 9 9 11 12 12 13 15 17 17 17 17 17 18 20 21 22 26 29 26 20 14 12 8 5 4 3 4 3 3 3 2 4 5 7 17 38 51 53 52 45 42 45 50 49 41 39 39 40 52 55 51 59 67 76 86 94 98 86 70 60 44 29 23 11 9 24 18 5 13 20 21 17 11 12 14 17 18
7 7 7 7 7 6 7 7 8 8 8 10 11 13 15 15 16 16 18 19 20 19 19 19 19 22 22 24 28 30 25 18 15 11 7 5 4 4 3 3 3 2 4 5 8 18 39 52 53 52 45 43 56 72 69 48 40 39 45 56 51 52 62 66 79 90 94 99 89 70 55 40 29 21 12 9 12 7 6 11 17 20 15 11 13 14 17 18
7 7 7 7 7 6 7 8 8 9 10 12 14 17 19 20 20 19 20 20 21 21 21 20 20 21 22 23 26 30 30 24 18 14 10 6 4 4 3 4 3 3 4 5 8 18 39 54 54 50 44 47 63 84 83 56 41 42 50 55 52 66 71 64 81 95 97 101 90 70 52 37 27 20 13 10 7 5 8 10 16 20 14 11 13 14 18 19
7 6 7 8 8 6 7 9 10 12 14 17 19 21 22 23 25 25 24 23 23 23 22 22 22 21 21 22 23 27 31 29 23 17 13 9 5 4 4 4 3 4 4 5 8 16 38 56 57 50 43 50 64 82 87 66 47 44 49 51 54 70 70 65 82 95 98 101 92 70 50 36 27 24 16 9 8 6 7 11 16 18 14 12 12 15 18 19
6 6 7 8 8 7 8 11 14 17 20 23 24 25 26 26 27 28 28 26 25 23 22 22 21 21 20 20 21 24 28 30 28 20 15 11 7 5 4 4 4 4 4 7 9 15 38 57 58 50 44 49 60 76 86 74 53 44 46 45 55 70 69 75 90 95 101 99 85 66 50 40 33 31 21 10 9 7 6 11 15 17 15 12 11 14 16 18
6 6 7 8 8 8 11 15 19 22 25 27 29 31 31 31 30 30 29 28 26 24 22 20 20 20 19 19 19 20 24 29 31 25 18 13 9 6 4 5 4 4 5 6 10 18 39 57 58 51 45 47 58 73 82 76 59 48 44 41 60 81 76 82 94 96 102 95 75 60 53 47 35 29 21 12 10 7 6 11 15 17 16 12 11 13 15 17
6 6 7 9 9 10 15 20 25 28 30 32 34 35 35 34 31 29 27 24 23 21 19 18 17 18 18 18 17 17 20 25 31 29 21 14 11 7 5 5 4 4 5 6 11 19 36 51 57 53 46 48 59 72 78 80 71 51 41 45 64 82 81 86 97 98 98 88 72 62 58 50 35 25 19 15 12 8 6 10 15 17 17 14 11 12 15 16
6 6 8 9 11 15 20 26 30 32 34 35 36 36 34 31 27 24 21 18 16 15 14 13 13 15 15 15 15 14 16 21 28 31 25 17 13 9 6 5 5 5 5 7 9 16 30 42 50 54 50 50 60 67 71 83 87 58 42 56 66 74 82 88 97 97 89 81 74 70 67 55 38 25 21 17 12 10 7 7 14 18 18 15 11 11 13 16
6 6 9 12 17 21 25 29 32 34 36 36 35 33 30 26 21 18 16 14 11 9 9 9 8 10 12 13 13 13 13 16 23 31 29 20 15 11 7 5 5 5 4 7 9 16 27 34 45 55 52 52 61 67 70 84 90 63 46 59 68 74 81 87 96 95 88 85 83 79 75 66 48 31 24 21 14 11 9 7 11 18 20 16 13 11 11 15
6 8 11 17 22 25 27 30 33 35 37 36 33 29 25 21 17 14 12 11 8 6 6 6 5 6 8 10 11 11 11 12 17 28 31 24 18 13 9 6 5 6 5 6 12 20 30 38 48 56 54 55 64 68 69 78 81 65 57 60 67 76 76 81 95 96 93 95 95 89 80 71 62 46 32 24 17 13 9 8 9 14 19 16 12 12 12 13
7 10 15 22 25 26 28 31 35 38 38 36 29 23 19 16 13 10 9 8 7 5 4 5 4 4 5 7 9 11 10 8 11 22 30 28 20 15 11 7 5 6 6 7 12 22 34 44 50 52 53 55 66 71 64 69 71 64 69 67 67 78 76 79 91 94 97 99 98 97 88 76 69 61 48 31 21 17 12 9 9 9 13 13 11 12 13 13
8 14 21 26 26 27 30 34 38 40 38 32 24 17 13 10 8 7 6 6 5 5 4 4 3 3 4 5 7 9 9 7 8 16 27 30 23 17 13 8 7 5 6 7 11 21 34 49 56 55 57 58 64 69 61 67 72 64 66 66 68 76 74 78 84 87 96 99 98 99 95 85 75 68 61 44 27 22 18 12 11 10 9 9 10 12 14 14
12 19 25 27 26 28 33 36 40 40 35 27 19 12 8 7 6 5 5 4 4 4 4 4 3 3 4 4 6 6 7 6 5 11 22 30 26 19 14 10 8 6 7 7 9 18 33 55 64 57 60 61 60 65 64 70 75 70 71 69 69 73 71 76 79 81 91 97 99 99 97 93 84 75 68 56 36 26 24 18 13 12 10 8 8 11 13 13
17 23 27 26 27 31 35 38 41 38 30 22 14 8 6 6 5 4 5 5 5 5 5 5 4 4 3 4 5 5 5 5 4 7 17 27 27 20 16 12 9 7 7 7 9 13 30 56 61 49 53 61 65 69 66 69 71 69 75 74 69 67 65 69 72 75 84 91 95 97 97 96 94 87 76 65 47 31 28 24 18 15 11 9 10 11 11 12
19 25 27 26 30 34 36 39 41 34 25 17 9 6 5 4 4 5 6 7 7 7 6 5 4 4 4 3 4 4 4 4 4 4 11 23 27 22 17 13 10 8 6 7 9 9 25 50 56 56 64 68 73 69 61 70 74 67 69 73 71 65 58 57 61 69 78 86 91 93 95 96 94 93 89 78 56 39 35 29 23 20 13 10 11 10 7 11
20 25 27 30 35 37 38 40 37 29 20 11 6 5 4 4 6 7 9 12 12 11 8 5 4 3 4 3 3 4 4 4 4 3 8 18 25 23 18 16 12 9 7 7 7 9 19 37 58 76 75 66 70 71 71 79 77 67 66 69 74 79 71 59 59 69 77 82 86 86 87 87 82 84 91 90 73 55 46 38 32 27 20 13 11 9 6 9
21 26 28 33 38 40 41 38 31 22 14 8 5 4 4 6 9 10 14 17 17 15 11 5 3 3 3 3 3 3 3 4 4 3 5 13 22 23 20 18 14 10 9 6 7 11 12 27 58 75 63 58 72 79 84 86 79 68 62 62 74 90 90 72 66 73 79 83 83 79 78 74 71 72 79 91 92 79 61 50 44 36 28 20 13 10 7 6
24 30 33 35 40 43 39 32 23 15 9 5 5 4 4 6 9 13 17 20 19 17 14 7 3 3 3 3 3 3 3 3 4 3 3 9 19 23 22 20 16 13 9 7 9 10 11 23 43 56 60 74 87 85 87 93 91 75 59 63 74 86 94 84 74 76 81 86 83 77 74 69 68 70 69 79 91 92 80 68 61 47 33 26 19 13 10 7
29 35 38 40 44 43 34 25 16 9 6 5 5 4 3 4 8 13 19 23 22 19 18 11 4 2 3 3 3 3 3 3 3 4 3 6 15 21 23 21 18 16 11 9 8 8 14 19 27 51 72 85 90 87 90 98 100 87 72 75 78 79 89 89 81 79 81 85 82 79 77 71 71 73 71 71 77 87 92 87 76 58 38 29 23 15 12 9
31 36 39 44 46 38 27 19 10 7 6 4 4 3 3 3 4 11 20 25 25 25 25 19 10 5 2 2 3 2 3 4 3 3 3 4 11 19 22 23 21 19 13 10 8 10 14 10 28 69 83 83 93 94 95 99 100 97 90 87 84 80 88 94 90 83 79 80 78 77 78 76 75 76 76 74 70 76 90 96 91 76 51 35 29 21 14 12
29 32 36 45 43 32 22 14 8 6 6 4 4 3 3 2 3 10 20 23 26 29 29 26 23 15 7 2 3 4 3 4 4 3 3 3 8 16 21 25 24 20 16 11 9 12 11 10 44 87 91 89 100 98 96 100 100 100 97 91 85 79 86 98 97 89 86 86 79 73 78 84 79 76 78 77 70 68 77 87 92 92 74 49 36 29 19 14
25 28 36 44 37 26 18 11 7 6 6 4 3 3 3 3 7 14 23 30 33 32 30 30 29 23 14 6 3 4 4 4 3 3 3 3 5 12 19 25 25 22 17 13 13 11 8 18 52 85 95 97 101 99 99 100 99 100 97 93 86 77 83 96 97 94 93 90 81 72 78 84 76 72 76 76 72 70 73 77 80 90 93 72 47 34 27 19
22 27 37 41 32 23 16 9 7 6 6 4 2 3 3 4 10 14 24 37 37 32 33 32 30 27 21 14 8 5 5 5 4 3 3 3 4 9 17 24 26 25 18 14 19 15 12 33 63 85 96 98 97 97 98 99 100 100 97 95 88 76 81 95 96 93 89 82 78 74 74 78 75 71 71 70 70 71 77 84 84 87 96 92 68 41 32 28
22 28 37 37 28 21 15 9 7 7 6 4 2 3 2 5 14 17 23 32 31 30 34 33 31 29 24 22 16 9 6 6 6 5 4 3 4 7 14 22 24 25 20 17 21 18 19 42 70 89 95 99 98 89 89 99 99 98 100 97 89 78 82 96 95 90 86 79 76 76 73 74 75 69 63 62 62 62 67 78 87 92 94 99 90 59 37 35
23 29 35 34 27 20 14 8 7 7 6 4 3 3 3 6 18 27 27 27 29 31 33 34 34 30 25 23 21 16 11 8 8 7 4 2 4 5 10 18 23 25 22 19 19 17 20 36 66 93 98 95 95 82 82 97 99 99 101 96 93 87 84 91 88 82 82 78 74 75 70 68 74 71 61 56 54 51 52 56 69 86 92 94 96 78 50 40
26 31 34 31 26 20 13 8 7 8 5 4 3 3 4 5 14 28 28 24 29 29 28 31 32 30 28 23 21 21 15 9 8 8 8 4 2 5 8 13 22 28 26 21 17 16 21 35 61 94 100 87 83 81 86 94 95 98 100 97 99 95 88 86 82 76 78 79 73 72 69 63 69 75 64 55 51 45 41 40 47 69 88 93 95 89 66 48
24 31 33 30 26 20 13 8 7 8 5 3 3 2 5 6 10 18 21 20 22 22 22 27 29 28 27 24 22 19 19 20 12 10 18 13 4 5 8 16 25 29 31 26 18 15 23 39 56 79 95 91 87 92 96 95 94 95 96 98 100 100 94 84 80 79 77 76 71 69 71 64 63 69 63 55 51 43 37 33 35 50 74 90 96 98 81 59
20 28 32 31 27 20 13 8 7 8 5 3 4 3 3 7 10 12 15 17 18 19 19 21 24 23 24 30 28 18 21 30 17 11 21 18 12 11 6 13 21 27 37 35 23 16 21 33 47 64 85 94 93 96 97 94 94 92 91 96 97 99 98 87 85 87 76 68 68 69 71 67 63 62 58 54 47 40 36 32 35 44 60 75 85 98 93 69
16 24 31 31 27 20 13 8 8 7 5 3 4 4 3 5 9 11 16 19 21 24 21 19 21 22 25 30 29 22 25 28 16 12 22 16 17 29 21 9 10 24 43 44 30 20 19 24 34 49 69 83 90 94 94 94 95 92 89 94 96 97 99 93 89 88 81 77 74 70 70 67 63 59 54 51 43 37 34 35 47 57 64 70 70 84 96 79
13 20 28 32 28 22 13 8 8 7 5 4 3 4 4 4 6 9 15 21 25 29 27 24 20 22 29 28 25 26 30 36 27 16 21 26 41 65 59 27 11 20 36 43 37 24 19 22 23 32 49 65 78 82 84 90 91 91 90 89 94 98 99 96 90 86 89 92 82 71 69 66 61 61 57 51 43 38 38 49 66 70 69 72 65 71 91 86
13 16 24 31 30 23 15 8 8 6 5 5 4 4 4 4 4 5 9 15 24 30 30 31 28 28 39 40 36 32 33 46 45 28 22 30 51 71 59 29 14 16 27 46 55 39 27 26 17 16 28 41 56 63 69 77 78 81 84 81 86 97 98 95 95 91 87 89 83 70 69 69 63 59 55 49 45 43 47 62 78 77 71 72 68 68 83 88
14 15 22 30 29 25 17 9 7 7 6 4 5 5 4 4 4 4 4 7 20 29 31 37 41 40 45 50 50 46 41 45 48 48 42 30 35 44 33 19 14 12 20 43 62 52 40 39 24 12 18 23 32 43 49 55 61 66 73 74 79 90 94 92 96 95 85 84 82 71 70 73 67 60 54 50 47 47 56 71 81 80 73 70 70 68 71 82
15 15 22 28 27 26 20 11 7 7 6 5 5 5 4 5 4 4 4 4 15 29 33 37 41 43 48 58 60 50 46 54 57 68 71 49 43 48 36 25 19 14 18 31 49 48 38 43 34 15 14 16 17 25 32 35 42 50 57 67 75 81 86 86 85 85 82 80 76 68 63 63 61 60 60 61 56 55 68 80 85 85 77 70 71 67 62 72
15 15 22 25 24 27 22 13 9 7 7 6 5 5 5 5 4 4 5 3 8 24 35 36 36 41 49 59 60 45 39 53 61 73 82 69 66 72 61 46 30 17 19 23 34 40 33 43 52 32 17 17 14 15 20 22 26 34 42 53 62 71 80 80 75 72 74 74 71 65 55 50 54 57 60 71 70 66 78 89 89 87 79 73 71 66 62 75
15 16 21 23 23 27 25 17 10 8 8 7 6 6 5 5 5 4 5 4 4 16 31 38 36 40 47 49 51 47 41 45 52 67 82 77 77 86 83 74 52 28 25 23 26 36 32 40 60 49 23 16 16 13 13 16 17 20 28 37 45 56 68 72 69 64 60 59 62 61 55 52 56 51 54 73 76 70 83 93 92 88 79 74 72 68 72 87
15 16 20 22 24 28 26 20 12 9 9 7 6 7 5 5 6 5 5 5 4 10 25 41 43 41 45 47 45 44 46 54 60 68 77 76 82 92 90 84 70 49 37 25 18 29 33 33 47 50 33 21 17 14 14 15 16 15 18 25 31 40 53 59 59 53 42 38 43 50 58 62 59 50 54 75 81 76 87 95 93 90 81 74 72 71 78 92
16 15 18 21 24 28 26 20 15 10 10 8 7 7 6 6 6 5 6 5 4 7 16 36 50 47 45 49 49 44 45 54 59 61 67 70 78 91 93 88 80 65 49 35 23 25 33 36 38 41 42 35 21 15 16 14 14 15 16 21 24 28 38 42 44 43 33 28 31 37 50 61 58 53 61 80 89 90 94 96 95 92 82 74 72 71 75 84
18 15 17 20 23 26 25 21 16 12 10 9 8 8 7 6 6 6 6 5 5 6 7 21 45 54 50 50 54 53 51 51 50 50 55 60 65 79 91 95 92 72 52 48 45 34 32 36 36 37 43 40 25 17 17 15 14 15 17 22 21 21 26 29 39 48 37 27 31 36 43 49 49 52 61 77 93 99 100 98 96 94 86 77 75 72 71 73
19 17 17 18 21 25 24 20 17 14 12 10 10 9 8 6 7 6 6 6 6 6 5 9 28 48 55 55 57 60 60 59 57 54 54 55 61 72 80 90 96 78 61 69 70 54 44 40 39 44 44 38 31 22 17 15 16 16 18 18 15 15 19 24 37 48 38 28 32 39 43 45 45 49 53 64 81 92 98 100 98 97 92 83 80 76 73 72
19 19 17 18 21 24 24 21 18 15 12 11 11 10 9 7 7 7 6 7 6 6 7 5 11 30 47 56 61 64 66 68 68 68 64 57 58 67 70 76 88 85 83 94 85 66 62 53 41 45 50 48 41 28 19 16 14 14 15 13 12 14 15 18 27 33 34 33 29 32 44 49 48 48 45 49 60 69 86 100 99 99 98 91 90 88 78 74
19 20 18 18 20 24 25 23 20 17 13 12 11 11 11 8 7 7 7 7 7 7 8 7 6 12 24 40 54 62 66 70 72 75 75 65 57 61 64 66 74 78 85 99 94 75 69 62 44 43 59 69 59 37 23 19 14 12 12 11 13 15 13 16 22 26 32 37 33 33 42 47 50 50 42 42 47 49 71 99 101 98 101 97 95 94 84 78
19 19 19 18 20 23 25 24 21 17 13 12 11 12 12 10 8 7 7 8 8 7 7 8 8 6 9 21 39 54 62 66 71 76 75 70 62 60 61 58 61 68 72 87 97 80 60 54 43 38 54 72 69 50 30 21 19 16 13 12 13 15 16 15 20 24 24 29 37 42 40 40 49 52 40 38 46 47 62 93 102 97 99 99 94 93 89 82
19 19 19 19 19 21 26 28 23 18 14 12 11 11 12 11 9 8 8 8 7 8 8 7 8 8 7 10 19 38 59 69 73 74 71 69 66 64 65 59 55 60 62 75 96 85 56 49 46 37 46 61 65 59 42 28 26 21 15 16 15 17 21 19 20 26 25 29 48 57 49 40 42 45 38 35 50 59 62 78 95 99 100 98 92 90 90 83
21 19 18 19 20 21 27 30 26 20 16 13 11 11 11 12 10 7 8 8 7 8 9 8 8 8 7 8 7 21 51 72 77 73 66 65 66 67 70 64 57 61 59 66 92 92 64 58 61 50 48 55 58 60 52 37 28 22 17 18 19 18 22 21 23 27 27 36 55 62 58 51 41 35 33 31 40 57 61 63 74 86 96 100 94 88 86 79
21 20 19 18 18 20 25 30 27 21 17 14 11 11 11 12 11 8 8 9 8 8 9 8 9 9 8 10 7 10 33 61 74 71 62 61 63 63 67 66 64 68 65 61 80 93 80 74 78 66 56 57 56 54 50 39 29 25 19 16 17 18 20 22 24 26 26 30 39 44 47 50 45 34 28 24 25 39 55 61 61 61 71 86 91 87 81 71
21 21 19 18 21 24 25 30 29 22 17 16 13 12 12 12 12 10 8 9 8 8 9 9 9 10 10 11 10 7 15 39 63 68 60 57 61 61 65 69 67 69 72 66 71 90 92 82 81 79 75 69 59 52 50 41 32 32 30 25 21 19 21 26 27 29 29 27 30 33 31 32 38 39 34 30 28 33 47 64 72 66 57 60 71 78 75 64
21 22 18 19 27 30 26 28 30 24 20 19 14 11 12 12 12 11 9 9 9 8 9 10 10 12 12 12 13 8 5 20 48 66 64 59 59 59 65 73 72 69 72 69 67 85 97 88 82 87 90 83 69 59 55 49 48 52 51 44 36 27 25 28 31 34 35 34 34 35 29 23 27 37 39 34 34 39 49 65 82 85 75 62 57 61 64 58
Wind_Speed
24 23 22 22 21 21 21 20 20 21 21 21 21 21 21 22 22 22 23 23 24 25 25 26 26 26 25 24 23 22 21 20 20 21 21 19 16 14 16 16 15 15 14 16 20 22 24 23 21 19 17 16 16 15 14 14 13 12 10 7 5 4 3 4 5 7 13 18 18 17 16 15 16 16 16 16 16 15 16 16 14 14 16 18 18 19 20 17
26 25 24 23 22 22 21 21 21 22 22 22 22 23 23 24 24 24 24 24 24 25 26 27 27 27 26 26 25 24 23 22 22 22 20 18 16 16 18 18 17 17 16 17 21 24 26 25 22 19 18 17 16 16 15 15 14 12 11 8 6 5 4 4 6 8 12 18 21 19 17 17 17 18 17 17 18 17 16 15 14 14 16 19 17 18 20 18
28 27 26 25 24 23 22 22 22 22 23 23 23 24 24 25 26 26 26 25 25 25 26 27 28 28 27 27 26 26 26 24 25 23 20 19 19 19 20 20 19 18 18 19 22 25 26 24 20 18 17 17 17 16 15 16 15 13 11 8 7 5 4 4 4 8 11 18 23 20 18 19 19 20 19 19 21 21 19 18 16 15 16 19 18 18 21 19
30 29 28 27 25 24 24 23 23 23 23 23 23 24 25 26 27 27 27 27 27 26 26 27 28 28 28 28 28 27 27 27 27 24 21 20 20 20 21 21 20 20 19 20 22 24 25 22 19 18 18 18 17 16 16 16 14 13 11 8 8 6 4 3 3 7 11 19 25 22 20 20 20 20 20 22 22 22 23 22 22 20 19 20 19 18 21 20
30 30 29 28 27 26 25 25 24 24 24 24 24 24 25 26 27 27 28 29 28 28 28 28 28 28 28 29 29 28 29 29 29 25 22 22 21 21 22 22 21 21 20 21 22 24 25 23 21 20 20 20 18 17 16 16 14 13 11 9 9 6 5 3 3 8 12 20 26 24 23 22 21 19 20 22 22 23 24 23 24 23 22 23 21 19 21 20
31 30 30 29 28 27 26 25 25 25 25 25 24 24 24 25 26 27 28 29 29 29 29 29 29 28 28 29 30 30 31 30 29 26 24 23 22 22 23 23 22 22 21 22 22 25 26 24 22 21 22 21 19 17 15 15 15 13 12 10 9 6 5 3 4 10 14 22 28 26 24 23 21 19 18 19 20 22 23 22 22 22 23 25 23 21 21 20
32 31 30 30 29 28 27 26 25 25 25 25 25 24 24 25 26 27 27 28 29 29 29 29 29 29 29 30 30 31 32 30 29 27 26 26 24 24 25 23 23 23 22 22 23 25 27 25 24 24 24 22 20 18 15 16 16 14 12 10 9 6 4 3 7 15 17 23 30 28 26 24 22 20 18 17 17 20 22 23 22 21 22 24 24 22 21 21
33 32 31 30 29 28 27 26 26 25 25 25 24 24 24 24 25 26 27 28 28 28 29 29 30 29 29 30 30 32 32 30 30 29 28 28 26 26 25 24 25 25 24 24 25 26 28 27 26 26 25 23 22 19 16 17 17 15 12 11 9 4 4 5 9 16 19 26 31 28 26 24 22 20 19 17 17 19 21 23 22 21 21 22 24 23 22 21
33 32 31 30 29 28 27 26 25 25 24 24 24 23 23 24 24 24 25 27 27 28 28 28 29 29 29 31 31 32 32 31 31 30 30 30 28 27 26 25 26 26 26 26 26 28 29 29 29 28 27 24 23 19 17 18 17 15 13 12 8 4 5 6 8 14 21 31 32 28 25 21 20 19 18 18 17 19 20 22 22 21 21 22 24 24 24 23
33 32 31 30 29 27 26 25 24 23 23 23 23 22 22 23 23 24 24 25 26 26 26 26 27 28 29 30 32 33 33 33 32 31 30 30 29 29 27 27 27 28 28 27 28 30 31 32 31 30 28 25 23 20 18 18 17 15 14 12 8 5 6 6 7 14 23 32 32 27 23 20 19 20 19 18 18 19 20 21 21 20 20 21 23 24 24 24
33 31 31 29 28 26 25 24 22 22 21 21 21 20 20 21 21 22 22 22 23 24 24 24 25 26 28 30 33 33 33 33 33 32 31 31 31 30 29 28 29 29 29 29 31 31 33 34 33 31 29 27 25 22 19 17 16 16 14 12 9 6 6 7 9 17 29 33 30 26 23 21 21 21 21 19 19 19 20 21 21 20 19 20 22 23 24 24
32 31 30 28 26 25 23 21 20 20 19 19 18 18 18 18 19 20 20 20 20 20 22 22 23 24 26 29 31 32 33 33 33 33 32 32 32 32 31 30 30 30 30 31 33 34 35 36 35 32 29 27 25 23 21 18 16 16 14 13 12 8 7 9 10 22 33 31 27 24 22 22 22 22 22 21 20 19 19 21 21 20 19 19 20 21 22 23
31 30 29 27 25 23 21 19 18 18 18 17 17 17 17 17 18 18 18 18 17 18 19 20 21 22 24 28 30 32 34 34 33 33 33 33 33 33 32 31 31 31 31 32 34 35 36 37 37 33 30 28 26 24 23 19 17 17 16 14 13 11 9 10 13 24 30 27 26 24 21 20 20 21 21 21 21 20 19 20 22 21 20 19 19 19 20 21
30 29 28 25 23 20 19 17 17 17 17 17 17 17 17 17 17 17 17 17 16 16 17 17 19 20 23 26 29 32 33 34 34 34 34 34 34 34 34 33 33 32 32 32 33 35 36 38 37 34 31 29 26 25 24 22 19 18 17 15 14 13 11 11 16 24 26 24 23 23 21 20 19 20 21 21 22 22 21 21 22 22 21 20 19 18 18 19
29 28 26 23 20 18 18 17 18 18 18 17 17 16 16 16 17 17 17 17 16 16 16 17 17 18 21 25 28 30 32 33 34 35 36 35 35 35 35 35 34 33 32 32 34 35 36 38 37 35 33 30 28 27 26 24 21 20 18 17 16 13 12 14 17 21 22 21 21 22 23 22 21 20 20 20 21 22 22 22 23 23 22 21 19 18 18 18
28 26 24 21 18 17 18 18 18 18 18 17 16 16 16 16 16 17 17 17 16 16 16 17 17 17 20 24 26 29 31 33 34 35 36 36 36 36 35 35 35 35 34 33 35 37 38 38 37 35 34 32 29 28 28 25 23 22 19 18 17 13 14 16 17 19 21 21 19 21 22 21 21 21 20 20 19 20 21 22 23 23 23 22 20 18 18 18
26 24 21 19 17 17 18 18 19 18 17 16 15 15 15 16 16 17 17 17 16 16 16 16 17 17 19 21 24 27 30 32 34 36 37 37 37 36 36 36 36 35 35 34 36 38 39 39 37 35 34 32 30 29 28 26 23 22 20 19 17 15 15 16 17 19 21 21 19 19 21 22 22 21 21 20 20 20 20 21 21 22 23 22 21 20 19 19
24 21 19 17 17 17 18 19 18 17 16 15 14 15 15 16 17 18 18 17 16 16 15 15 16 18 19 20 23 26 29 31 34 37 38 38 37 37 37 36 36 35 35 36 37 39 41 39 38 37 36 33 31 29 29 27 23 22 22 21 19 18 16 15 17 20 20 20 19 19 21 22 22 22 21 21 20 21 20 20 21 21 22 22 22 21 21 21
22 19 17 16 17 17 18 18 17 17 16 15 15 15 16 17 17 17 17 16 16 15 14 14 15 18 19 20 23 26 28 31 34 37 38 38 38 37 37 37 36 36 36 36 37 40 41 41 40 40 38 33 30 30 30 29 25 23 24 23 21 21 19 17 17 18 19 19 18 19 19 20 21 21 21 21 21 21 20 20 19 19 20 21 22 23 23 23
20 18 16 16 17 18 18 17 17 16 15 15 15 16 18 18 16 15 14 13 13 12 12 12 13 16 19 21 23 26 29 31 34 37 38 38 38 38 38 37 37 37 37 37 38 39 41 42 41 38 35 31 30 32 31 27 25 24 25 24 22 22 21 20 18 17 18 18 18 19 18 17 18 18 19 21 21 20 20 19 18 17 19 20 21 23 24 24
20 17 16 17 17 18 17 16 15 15 15 15 15 17 18 17 15 14 12 11 10 10 9 9 11 14 18 21 23 26 29 31 33 36 37 38 38 39 39 38 38 38 38 39 38 39 41 43 41 38 36 35 35 34 29 26 27 26 25 25 24 21 21 22 20 18 18 18 18 19 18 17 16 14 15 19 20 19 19 19 18 17 17 19 20 22 23 24
20 18 17 17 17 17 16 15 14 14 14 14 16 17 16 14 13 12 11 9 8 8 7 6 8 12 17 21 23 25 28 31 33 35 36 38 39 40 40 39 39 39 39 38 38 39 41 42 41 40 39 37 34 32 29 27 27 27 27 27 25 21 21 22 21 19 19 18 18 19 18 17 16 14 14 16 20 21 20 20 19 19 18 18 18 20 21 23
20 19 18 17 17 16 15 14 13 13 13 14 15 15 14 13 12 10 9 8 8 6 4 3 5 9 15 19 22 24 27 30 32 34 36 38 40 40 40 40 40 39 39 38 39 39 39 40 42 42 39 36 34 32 30 27 26 28 28 27 25 22 22 23 22 20 19 18 18 19 18 16 15 15 15 15 18 22 22 21 20 20 20 20 19 19 20 21
20 19 18 17 15 14 13 13 13 12 12 13 15 14 14 13 11 9 8 8 8 7 6 3 2 6 12 17 21 24 26 29 32 34 36 38 40 40 41 42 40 39 39 39 40 39 38 41 42 41 39 39 36 34 31 27 26 27 28 26 23 23 24 24 23 21 19 19 18 17 17 17 16 15 15 15 15 18 22 22 20 19 19 20 19 18 20 21
20 19 17 16 14 13 12 13 12 11 12 13 15 15 15 14 11 8 7 7 7 8 8 5 2 2 8 13 18 22 25 27 31 34 36 39 40 41 42 41 40 40 40 40 39 38 39 41 40 40 42 41 38 35 32 30 28 28 29 27 21 22 25 24 24 23 21 20 19 17 16 15 15 14 14 15 13 14 19 22 22 20 19 18 17 17 19 22
20 19 17 14 12 12 12 12 10 10 12 14 15 15 16 15 11 8 6 6 8 7 7 6 5 3 3 9 14 19 22 26 30 32 36 39 40 41 41 41 42 42 41 40 39 39 41 40 41 43 43 41 38 37 34 31 30 29 30 29 24 23 24 23 25 23 21 21 20 19 17 14 14 15 14 13 13 13 16 19 21 22 21 18 17 18 19 21
20 18 16 13 11 11 11 11 9 10 12 14 15 16 16 15 11 9 7 7 8 7 6 6 6 5 1 5 9 14 19 24 27 31 35 38 40 41 42 42 43 41 40 39 39 40 39 39 43 45 44 41 39 37 35 32 32 31 31 29 27 27 26 25 26 24 21 20 20 19 18 14 13 15 15 13 12 12 13 16 19 21 22 21 18 18 20 21
19 18 15 12 10 11 11 10 9 10 12 14 15 16 17 15 13 11 9 7 7 6 6 6 5 6 3 1 4 9 15 20 25 29 34 37 40 41 42 43 43 42 41 40 40 41 38 39 44 45 44 42 40 40 38 35 34 33 32 31 30 31 28 26 27 24 22 20 19 19 19 17 15 15 16 15 13 11 12 14 17 19 22 23 20 19 21 21
18 16 14 11 10 11 10 9 9 10 12 13 15 16 17 16 14 11 10 7 7 6 6 5 5 4 4 2 2 6 12 18 23 28 32 36 39 41 43 44 44 43 42 40 42 43 41 42 46 46 45 43 42 43 40 37 35 33 32 32 31 32 30 28 27 24 21 20 20 20 21 19 18 17 17 17 16 13 12 13 15 19 22 24 23 22 22 23
18 15 13 10 10 10 9 8 8 10 11 12 14 16 17 16 13 11 10 8 7 6 6 5 4 4 3 2 1 3 8 14 19 24 29 34 38 41 43 44 44 43 42 42 45 45 42 43 46 47 46 46 46 44 41 39 38 35 34 32 31 33 32 30 28 25 21 21 21 21 22 22 19 18 18 19 18 15 14 14 13 16 21 25 27 26 24 25
17 15 12 10 10 10 9 8 8 10 11 11 13 16 17 16 13 9 7 7 6 6 5 5 5 4 3 2 1 1 4 9 15 20 24 30 35 39 41 41 43 43 43 44 46 44 41 42 46 48 48 48 46 43 41 41 40 37 35 33 31 33 34 31 29 26 22 22 24 23 23 23 21 19 19 20 20 18 16 16 15 15 16 22 28 29 27 26
17 15 13 10 10 9 8 7 7 9 10 10 13 15 16 15 12 8 6 6 6 5 5 5 5 4 3 3 2 1 3 6 12 17 21 27 31 35 38 39 41 44 43 44 46 44 42 42 46 48 49 47 45 43 42 40 39 38 36 33 32 33 35 34 30 26 25 25 26 25 24 24 23 21 20 19 20 19 18 17 17 17 17 18 24 31 33 30
17 15 13 11 9 9 7 6 7 8 9 10 12 14 14 13 10 7 6 6 6 5 5 5 5 5 4 3 3 3 2 4 8 15 20 25 28 33 38 41 44 46 42 42 46 46 44 46 47 48 48 47 45 44 42 40 39 38 36 34 33 33 34 34 30 26 27 28 28 27 25 24 23 22 20 19 19 18 17 17 17 17 19 20 21 27 36 34
17 16 13 11 9 8 7 6 6 7 7 9 11 13 13 12 10 7 5 6 7 6 5 4 5 5 5 4 5 6 3 2 5 11 17 22 26 28 33 40 44 45 42 42 48 49 44 44 47 47 47 47 45 44 43 41 39 38 37 34 32 32 31 31 30 26 24 25 26 27 25 23 22 21 19 18 18 17 16 15 15 16 19 21 21 24 35 40
17 16 14 12 9 8 7 5 6 7 6 8 10 11 11 11 10 8 6 7 7 7 5 3 3 4 4 4 4 5 3 2 4 7 13 20 23 22 26 36 41 43 45 43 45 50 46 43 47 48 48 48 46 45 44 43 41 39 38 36 32 30 29 29 28 26 23 22 24 26 25 23 21 18 17 17 17 16 15 13 15 16 17 19 19 20 30 41
17 16 14 12 10 8 7 5 6 6 6 6 8 9 9 10 10 10 9 8 7 8 6 3 3 3 3 3 3 4 3 2 3 5 10 17 22 22 25 33 38 42 45 39 36 44 45 42 48 50 48 49 46 45 46 43 41 41 41 39 35 31 30 28 25 25 25 23 24 26 24 23 22 20 19 19 17 16 15 13 14 16 17 18 17 15 21 35
17 16 15 12 10 9 7 5 5 6 5 6 6 8 8 9 10 11 11 9 7 7 6 2 1 2 3 4 3 3 3 4 4 5 9 12 18 23 25 29 34 39 43 39 34 40 42 39 46 49 46 48 47 45 47 45 42 44 43 40 38 35 33 29 24 24 25 23 24 25 24 23 23 22 21 20 19 16 15 14 14 16 18 17 16 14 16 26
17 16 14 12 10 9 8 6 5 5 5 5 5 7 8 9 11 11 11 10 7 6 5 1 1 1 2 3 3 4 4 6 7 6 7 9 13 19 21 25 31 34 40 41 37 42 44 38 42 48 46 45 47 46 46 47 46 46 45 42 42 39 35 33 30 27 26 25 25 25 25 25 24 23 22 20 19 17 14 14 15 16 18 17 15 15 16 22
16 16 14 12 11 9 8 7 7 6 4 4 5 6 8 9 10 11 11 10 8 5 3 1 1 2 2 2 3 4 5 6 8 7 6 8 10 14 16 21 27 30 35 40 39 41 44 35 32 42 46 43 45 47 47 48 48 47 45 45 45 42 38 37 34 31 30 27 26 27 27 26 25 24 22 19 18 16 14 14 15 15 17 16 14 14 15 20
16 16 13 12 12 9 7 7 7 7 5 4 5 6 8 9 10 11 11 10 8 5 3 2 3 4 4 4 4 4 5 6 8 7 5 7 9 11 13 16 21 26 29 35 38 39 42 36 28 36 46 45 44 46 46 46 47 46 46 46 45 43 41 40 37 35 36 32 29 28 26 26 24 20 20 19 18 17 15 16 16 15 16 14 12 11 11 17
16 15 13 12 12 9 7 6 7 7 6 5 5 6 7 8 9 10 10 10 8 5 3 3 4 6 6 6 6 5 6 7 7 7 5 5 6 11 15 15 15 20 23 29 35 37 40 40 34 35 41 42 43 44 44 46 46 45 45 45 44 43 43 42 39 38 39 36 33 29 25 24 23 20 21 21 20 19 17 17 17 15 15 13 11 10 8 12
15 15 13 12 11 8 7 6 6 7 6 5 5 5 6 7 7 8 9 10 9 6 4 5 4 7 8 7 8 7 7 7 7 8 8 6 5 6 11 13 13 15 19 25 31 35 37 39 39 38 35 36 43 45 43 45 46 45 44 43 43 43 42 42 40 39 38 38 36 32 28 26 22 21 22 22 22 22 19 17 17 16 15 13 11 9 9 11
14 14 14 12 10 8 8 7 6 7 7 6 5 5 6 6 6 7 8 9 8 7 5 5 4 5 8 8 8 8 8 9 9 9 9 8 7 6 5 7 10 13 19 23 27 31 34 36 39 41 37 37 42 43 40 42 44 43 42 42 43 43 42 40 38 38 39 39 36 31 29 28 23 21 23 23 23 23 20 18 18 17 15 14 13 10 9 10
14 14 14 12 10 9 8 8 7 6 6 6 5 4 5 6 5 6 7 8 8 8 6 5 4 3 6 8 9 9 9 10 11 10 9 9 9 7 6 5 7 12 17 20 24 28 30 33 37 39 39 38 38 38 39 41 42 42 43 44 45 43 42 41 40 39 39 38 36 32 30 28 23 22 24 25 23 24 22 20 18 16 15 14 14 12 10 11
13 13 14 13 10 8 8 8 7 6 6 6 6 5 5 5 4 4 6 7 7 7 7 6 4 2 4 6 9 10 9 10 12 12 12 12 11 10 8 8 8 12 15 15 20 25 26 29 34 36 36 36 36 37 40 40 42 44 45 44 44 42 41 42 41 41 40 37 36 34 32 29 24 22 25 26 26 26 24 22 19 15 14 14 12 12 10 10
12 13 14 13 10 9 8 9 8 7 6 7 7 6 5 6 5 4 4 5 6 6 6 7 5 3 3 5 7 9 10 11 13 15 14 14 13 11 10 10 10 13 15 16 20 24 24 27 32 35 33 31 33 37 39 40 41 44 44 42 41 41 42 41 40 41 41 39 35 33 32 30 25 23 24 27 28 28 25 23 20 15 14 15 12 11 11 9
11 12 13 13 11 9 8 9 9 8 7 7 7 7 6 6 5 3 3 4 5 6 6 6 6 5 4 5 6 7 9 11 13 15 16 16 14 12 12 11 11 13 15 17 22 24 25 27 30 34 33 28 28 31 34 37 39 39 41 41 40 40 40 39 39 40 41 39 34 32 33 31 28 25 25 26 27 27 26 24 20 14 17 18 15 13 12 11
11 11 12 12 12 10 8 9 10 9 8 8 8 8 7 6 6 4 3 3 4 5 5 5 6 5 5 5 6 7 7 9 11 13 16 16 14 13 12 12 12 13 13 16 23 27 27 28 30 33 33 29 27 27 29 33 37 37 37 38 39 38 38 39 39 38 38 36 31 30 31 32 32 30 27 27 26 24 26 25 21 16 18 19 19 16 14 14
11 11 11 12 12 11 9 10 11 11 10 10 9 9 8 7 7 6 4 3 3 4 5 6 6 5 5 5 5 6 6 7 9 12 15 15 14 13 12 11 11 10 11 13 22 30 28 27 29 30 30 29 28 26 27 30 35 36 35 36 37 38 38 39 39 37 37 35 32 29 28 30 33 33 30 30 28 25 26 27 25 22 20 20 19 18 17 18
11 11 11 12 12 11 10 10 12 13 11 11 10 9 8 7 7 6 5 3 3 3 4 5 6 6 6 6 5 5 6 7 7 11 14 14 14 13 11 10 9 7 7 10 18 29 29 25 26 28 28 28 28 28 28 29 32 34 33 34 35 37 38 38 38 37 37 37 35 32 31 30 31 32 31 32 31 28 25 26 28 28 25 23 21 20 21 22
11 10 11 12 11 10 10 11 13 14 13 12 11 10 9 8 8 7 6 4 3 2 3 4 5 6 6 7 6 5 6 6 6 9 13 14 14 13 12 11 9 6 6 6 12 25 30 27 27 28 28 28 28 29 30 31 32 32 31 31 33 35 36 37 37 37 37 37 35 35 36 35 32 30 30 30 30 30 27 23 23 25 27 28 26 24 25 25
11 10 11 11 10 10 11 11 14 16 15 13 12 11 10 9 9 8 7 5 4 3 2 2 4 5 6 7 7 6 5 6 5 6 11 13 13 13 12 11 10 8 8 7 8 18 29 30 27 29 29 28 28 30 31 31 31 31 29 30 31 33 35 36 36 36 36 35 35 35 37 36 33 31 30 30 29 29 27 24 21 20 22 26 28 29 29 28
Wind_Direction
336 333 329 325 321 317 312 307 302 296 291 286 282 277 273 267 263 259 255 251 247 245 244 243 242 239 238 238 239 237 233 230 228 227 226 225 219 210 215 216 212 217 218 214 207 202 202 203 203 199 197 195 191 190 187 187 192 196 194 182 180 174 157 147 168 167 161 169 165 160 158 150 148 143 140 138 141 148 147 145 142 145 141 131 129 124 119 115
335 332 328 324 320 316 311 306 301 297 292 286 282 278 275 270 266 261 257 253 249 245 243 242 241 239 237 235 236 236 234 231 228 228 225 221 212 205 212 214 211 213 211 211 208 204 204 203 202 200 197 195 192 189 187 190 192 195 195 190 194 183 152 144 176 184 171 173 168 163 161 155 157 151 145 142 142 146 147 147 146 149 144 132 130 124 116 113
334 331 328 324 320 316 311 306 301 296 292 288 283 278 275 272 268 264 259 255 251 247 243 241 240 238 237 235 234 234 234 232 230 228 222 217 211 205 210 211 211 213 210 210 210 207 206 202 200 200 197 196 194 188 188 192 193 198 199 200 205 192 168 164 196 193 181 179 170 163 163 163 168 161 153 152 151 151 152 153 152 153 147 135 133 127 118 116
333 330 328 325 321 317 311 307 302 297 293 288 284 279 275 271 268 265 262 257 253 249 245 241 239 238 236 235 233 232 231 232 231 227 220 216 211 207 208 209 211 213 212 212 213 208 205 201 198 198 196 197 195 189 190 192 194 200 203 205 209 199 179 191 225 191 181 183 172 164 167 170 175 171 162 158 156 157 159 160 155 155 152 140 138 133 123 121
332 330 327 324 321 317 313 308 304 299 294 289 284 278 274 270 266 264 262 259 255 250 247 243 239 237 235 234 232 231 230 230 230 226 221 217 211 207 208 208 209 212 212 213 213 208 204 200 198 198 196 195 193 190 190 192 195 200 203 206 206 193 177 210 236 183 176 180 175 168 171 175 177 175 167 161 160 162 162 161 155 155 154 145 143 140 129 127
331 329 326 324 321 318 313 309 304 300 295 290 285 279 274 269 265 261 259 259 256 252 248 245 241 237 234 233 232 230 230 229 229 225 221 219 211 207 207 205 206 209 211 212 212 207 203 199 198 198 197 194 191 191 191 193 197 199 201 204 204 190 179 206 193 177 177 180 179 175 174 177 177 174 168 163 163 164 162 158 155 157 156 148 146 143 133 129
330 328 326 324 321 318 313 309 304 299 294 290 285 281 275 270 265 261 258 256 255 253 249 246 242 237 234 233 231 230 230 228 226 223 220 219 212 208 207 203 203 206 208 209 209 206 202 200 199 199 197 193 189 190 191 195 199 199 200 202 203 196 189 195 174 179 184 184 183 179 176 177 174 170 167 163 161 164 162 157 156 160 159 151 146 143 134 130
329 328 326 324 321 317 313 309 304 299 294 290 285 282 277 273 268 263 259 257 255 253 250 246 242 238 233 231 231 229 228 226 224 221 218 218 213 210 207 201 201 203 204 205 205 205 202 201 202 200 197 193 190 187 188 197 199 197 197 196 201 201 199 200 183 186 189 187 185 179 177 174 170 167 164 160 158 164 164 157 158 162 162 154 147 142 136 135
329 327 325 323 320 317 313 309 304 300 295 291 287 284 280 276 271 266 262 259 257 254 250 246 242 238 233 230 230 229 227 224 223 219 217 217 214 211 206 200 201 201 203 202 202 203 201 201 203 202 197 193 190 185 187 198 197 197 197 197 200 186 190 206 199 195 193 188 181 177 176 169 165 166 162 158 154 161 164 160 160 164 165 158 151 147 142 142
329 327 325 322 319 316 312 308 304 300 296 294 291 288 284 279 275 271 267 262 259 257 254 248 243 238 233 229 228 228 225 223 221 218 216 215 213 211 206 201 201 201 201 198 199 202 201 204 205 202 197 193 189 185 191 198 196 197 198 200 198 181 191 200 194 193 191 186 177 173 171 163 164 166 161 157 151 157 165 164 162 164 168 164 157 152 148 147
328 326 324 321 318 315 312 308 304 301 299 297 295 292 289 284 280 276 273 268 263 261 258 253 245 239 234 229 227 226 224 222 220 217 215 213 211 211 207 202 200 200 201 197 197 199 201 205 207 202 196 193 190 188 192 196 197 199 195 197 189 171 187 182 177 183 182 179 170 166 165 162 166 165 161 158 151 155 165 166 164 166 171 169 162 157 153 150
328 326 323 321 318 315 312 309 306 304 302 300 299 297 294 289 284 280 278 275 270 265 261 256 248 240 234 230 227 224 222 220 218 216 215 213 209 209 207 203 200 200 200 198 196 197 200 205 207 204 196 193 192 189 191 194 199 200 190 191 184 164 173 177 179 179 175 169 162 162 165 165 167 164 163 160 153 154 162 167 167 168 173 174 168 162 158 154
327 325 323 321 319 316 314 311 308 306 305 304 302 299 295 291 288 285 282 280 276 269 263 257 250 242 235 230 227 223 221 218 216 215 213 212 209 207 206 204 201 200 200 200 198 197 200 205 207 203 197 194 193 190 191 193 197 197 188 187 182 169 171 176 178 175 169 162 160 164 167 168 168 165 164 161 155 154 159 166 169 169 173 178 174 167 163 157
327 325 323 321 320 318 315 312 310 309 308 306 304 300 296 293 292 290 287 283 280 274 266 259 252 243 235 230 226 223 220 216 214 212 212 211 209 207 205 203 202 200 199 200 200 200 201 205 207 203 198 195 193 192 193 194 194 191 188 187 178 171 174 171 169 169 166 164 165 169 170 171 172 168 166 164 158 157 160 164 170 171 173 179 178 171 166 161
327 325 323 321 320 319 316 313 312 312 311 309 306 302 298 296 295 293 290 285 280 275 269 262 253 244 235 229 225 223 219 216 213 210 210 210 208 207 205 204 202 200 198 198 199 201 203 207 208 203 199 194 193 195 194 195 194 187 188 187 177 173 177 172 168 172 177 178 176 176 174 173 174 173 170 167 162 161 163 163 167 171 173 178 182 175 169 165
327 324 322 321 320 319 316 315 314 313 313 311 308 305 302 301 299 296 292 286 280 274 267 261 253 244 235 229 225 222 218 215 212 210 209 209 208 207 206 204 203 200 196 196 198 201 204 209 208 205 201 195 194 197 196 196 194 189 188 184 177 175 177 176 176 181 188 190 186 184 182 177 176 177 173 169 166 165 167 167 167 170 172 176 182 179 173 170
328 324 322 320 320 318 317 317 316 315 314 312 309 308 308 307 306 302 297 290 283 275 266 258 251 243 234 228 224 221 217 214 211 209 208 207 207 206 205 204 204 202 195 194 197 200 205 208 208 207 205 199 196 197 199 199 195 191 189 184 181 180 177 178 180 182 186 191 193 191 187 181 179 181 177 173 170 169 171 173 171 171 171 172 178 180 177 176
328 325 322 320 320 319 319 319 318 317 315 313 313 313 313 315 312 307 302 297 289 280 269 257 248 239 232 225 221 218 214 212 210 208 207 206 205 205 205 204 203 203 198 194 196 199 204 207 207 207 206 201 197 198 201 202 198 192 188 187 187 187 185 184 183 185 188 192 196 192 186 183 182 182 180 177 175 173 175 177 177 175 172 170 174 180 182 181
331 327 324 322 320 320 322 321 320 319 317 316 317 318 319 319 316 311 307 301 295 287 276 261 246 236 228 221 217 214 211 210 208 208 207 205 204 204 204 204 203 202 200 197 197 199 202 206 207 206 205 201 197 201 204 204 203 195 189 189 190 193 197 194 188 189 189 190 192 189 184 182 182 184 184 182 181 179 177 178 180 178 175 172 173 179 185 186
335 331 327 324 322 322 323 323 322 321 320 320 321 323 323 323 321 318 314 309 302 293 282 266 246 232 224 218 214 211 208 207 207 207 205 203 203 203 203 204 203 202 200 199 199 200 202 205 207 207 206 202 200 204 205 205 208 199 193 193 191 199 204 197 194 198 193 188 188 186 184 179 178 184 189 188 187 183 178 177 181 181 179 179 177 180 186 189
338 334 331 327 324 323 324 325 325 324 323 324 326 328 329 331 331 329 327 322 312 303 293 273 248 229 221 216 213 210 208 206 205 206 204 202 202 203 203 203 203 202 202 200 200 201 203 205 206 205 205 202 201 204 202 205 209 202 199 198 195 206 213 201 196 198 193 187 185 185 185 180 177 181 187 193 194 189 183 179 179 182 184 187 185 182 187 193
339 335 332 329 324 323 325 328 329 328 328 330 332 334 337 341 340 337 337 335 325 315 305 281 249 228 218 214 211 209 207 205 204 204 203 201 201 202 203 202 203 203 203 202 201 204 205 204 204 205 204 202 202 203 202 205 208 205 202 201 201 207 210 205 199 198 197 194 192 192 190 185 184 181 180 191 198 197 192 184 182 183 185 193 193 186 187 194
339 335 333 329 324 325 329 333 333 333 335 337 338 342 346 348 347 344 345 350 350 345 334 290 241 223 216 213 210 207 207 205 203 201 200 200 201 202 202 203 204 203 203 202 203 206 207 205 205 205 204 204 204 204 203 204 207 208 203 201 207 207 201 202 201 200 200 198 197 199 197 193 192 189 184 189 198 202 201 194 191 188 185 191 194 188 185 190
339 336 336 331 326 329 334 337 339 340 342 343 346 349 350 352 355 352 350 360 10 17 16 2 232 217 215 213 210 207 206 205 202 200 198 199 200 201 202 203 203 204 203 203 204 206 207 207 206 204 203 205 204 202 202 202 204 209 207 206 209 205 200 200 199 196 196 195 195 198 199 197 194 192 192 193 197 205 208 205 201 197 193 193 192 188 187 189
340 339 338 334 330 334 339 342 343 345 348 351 354 353 353 355 359 357 354 5 19 24 21 28 53 207 213 213 212 208 206 205 203 200 197 197 199 200 202 203 203 203 204 204 205 206 208 209 205 202 205 206 202 201 201 201 202 206 211 213 209 200 199 202 201 200 201 203 204 202 201 201 200 197 197 200 200 205 213 213 209 206 204 199 193 190 192 193
341 340 339 336 335 340 344 345 345 349 354 358 358 356 356 356 359 5 5 13 27 29 26 38 39 22 206 210 214 210 207 205 204 200 197 197 198 199 201 202 204 204 203 204 204 207 209 206 201 201 206 206 202 202 200 200 204 206 210 214 211 205 205 205 202 200 204 208 209 206 203 202 204 204 203 204 204 208 214 216 212 210 210 206 197 193 197 200
341 341 340 338 340 346 347 347 348 352 359 0 359 359 360 0 5 13 19 21 22 23 27 35 32 30 97 199 212 210 209 207 205 201 199 198 197 198 200 202 204 204 203 203 204 209 209 204 200 201 204 205 204 204 201 201 207 209 209 209 207 207 210 209 202 198 204 208 207 209 211 210 208 207 206 205 208 215 218 219 217 213 212 212 204 197 199 204
344 343 342 341 345 349 348 348 349 354 2 1 360 3 5 9 14 20 34 30 10 9 16 21 28 36 50 168 205 209 209 207 206 204 200 199 197 197 199 202 203 203 203 202 205 209 207 203 202 202 204 205 204 205 202 203 208 211 209 207 205 207 210 210 203 200 205 209 209 211 214 215 216 213 211 209 210 217 222 222 223 219 215 215 211 203 202 205
348 347 345 345 348 350 348 347 347 355 3 1 2 8 11 15 18 24 38 30 3 4 6 6 16 24 28 54 174 207 209 207 208 206 202 200 199 198 199 201 202 203 202 201 206 209 205 202 202 203 205 206 207 207 203 204 210 213 211 206 204 205 208 208 204 201 205 210 213 214 212 212 217 219 217 215 216 221 227 227 227 223 218 218 215 210 207 207
353 351 348 346 349 350 348 346 346 356 2 1 6 12 15 18 21 27 29 16 5 6 1 4 13 11 8 31 116 192 212 211 211 209 205 203 201 200 201 200 200 202 202 202 208 208 203 202 202 203 206 208 208 207 203 205 209 212 213 209 203 203 204 206 207 205 206 212 217 217 215 213 219 226 224 222 223 229 237 238 240 235 225 223 219 212 210 210
354 352 348 346 347 349 348 343 347 357 359 1 9 15 16 19 24 31 24 13 11 5 0 4 5 11 7 360 36 185 211 212 211 208 208 207 205 203 202 201 201 202 202 204 210 208 203 203 204 205 208 209 209 208 207 208 210 212 214 211 206 202 200 203 210 210 209 216 222 222 221 217 221 230 232 231 232 237 246 248 250 250 241 234 226 217 213 213
352 349 346 344 344 346 345 341 349 357 355 1 12 16 17 19 22 26 22 17 13 3 4 1 357 7 1 349 348 292 217 212 208 203 205 208 207 207 204 202 202 203 203 205 211 210 205 206 208 207 209 210 211 213 213 213 212 213 215 213 209 203 199 203 209 211 211 218 223 226 226 223 224 231 235 238 241 244 251 253 252 252 250 248 239 224 215 214
350 347 343 341 341 342 341 338 349 354 353 4 14 14 18 21 17 14 12 11 4 357 1 358 360 5 348 339 345 327 266 224 211 203 205 204 205 209 208 204 201 200 202 206 210 212 208 208 211 209 209 211 211 214 217 216 216 216 216 216 213 206 201 203 207 208 212 219 224 227 229 227 228 232 237 242 246 248 252 256 255 252 250 253 255 236 217 213
351 347 342 338 337 338 337 336 345 350 354 9 15 13 16 19 13 7 360 352 350 351 351 352 2 8 1 351 338 332 318 253 225 211 207 201 203 211 213 211 205 199 202 204 207 211 209 211 214 211 211 212 211 214 217 217 218 218 220 220 219 214 207 204 206 207 211 219 224 227 230 231 232 234 239 244 249 252 254 257 254 252 252 251 262 252 221 210
351 349 343 336 332 332 330 329 337 343 356 13 14 10 13 14 11 8 355 341 343 349 351 352 356 357 357 354 331 325 318 277 255 223 207 200 202 208 211 212 208 202 205 206 207 210 208 210 215 212 212 213 212 215 217 217 218 220 222 222 220 219 213 207 207 206 210 218 223 226 229 233 235 236 241 244 248 250 250 253 250 249 254 250 260 262 224 209
351 350 345 336 327 325 322 321 329 334 353 15 11 6 10 10 10 9 1 350 344 350 358 357 344 331 327 337 319 308 300 249 243 230 217 208 208 213 214 212 208 205 207 207 208 211 210 213 216 211 212 213 211 215 217 216 219 220 223 223 220 220 217 212 211 210 212 219 222 225 230 236 238 239 244 245 245 247 243 245 249 247 252 249 251 260 229 213
350 349 346 335 324 322 317 313 318 325 347 12 5 0 5 7 10 11 7 360 350 355 6 360 323 319 318 325 300 280 263 220 213 214 222 220 219 221 220 214 210 208 208 207 209 211 209 213 218 213 213 214 211 215 217 216 218 220 220 223 223 222 219 215 215 217 218 221 225 226 228 234 238 240 243 243 240 242 239 239 247 248 250 251 247 249 239 223
349 348 346 335 323 321 316 308 306 315 341 5 358 357 1 4 10 13 9 2 353 356 11 15 214 230 293 309 284 261 241 221 215 204 207 217 223 223 221 218 214 211 210 209 211 212 208 210 218 215 213 215 212 213 217 216 218 219 219 221 223 223 223 220 219 221 222 225 230 232 232 237 242 241 237 235 234 236 238 237 243 248 249 253 253 248 245 234
349 348 345 336 326 321 317 309 304 307 328 352 353 355 359 1 8 13 11 4 351 347 1 3 222 218 228 252 268 260 241 224 219 212 205 210 218 220 220 221 218 214 213 212 213 215 211 209 219 218 214 215 213 212 215 216 217 219 219 220 221 221 224 225 224 226 229 231 235 238 240 242 244 241 233 228 229 231 235 238 239 244 248 251 255 253 251 233
348 347 344 338 329 323 316 308 301 298 306 330 345 351 356 360 6 11 11 4 355 345 346 327 247 233 225 229 247 253 241 229 222 219 220 224 223 216 217 224 222 217 217 216 214 215 213 208 213 218 214 214 215 212 214 217 218 219 219 221 222 221 223 226 225 226 229 232 234 235 237 238 237 233 226 223 227 229 232 237 236 239 246 251 252 254 256 230
348 347 344 339 332 322 312 303 297 293 297 315 335 347 351 355 4 10 10 7 5 358 345 328 261 235 226 225 232 238 235 231 227 222 228 243 228 207 208 220 224 218 218 219 216 215 215 210 211 216 214 215 218 214 213 217 218 218 220 222 224 222 223 227 227 227 229 230 233 231 229 233 230 219 215 219 224 228 230 234 234 235 241 246 248 247 247 231
347 346 343 340 333 320 306 297 291 288 291 303 321 340 343 346 1 9 9 10 10 3 346 338 293 242 232 229 230 233 235 236 234 229 232 244 243 216 203 206 216 215 213 217 217 215 215 212 212 214 212 215 219 215 212 216 217 217 218 221 225 225 225 226 228 231 232 230 232 231 227 230 225 210 210 215 221 227 230 232 232 232 235 240 244 244 242 237
346 344 341 339 334 319 302 292 288 286 289 297 307 328 332 334 353 3 6 10 10 6 351 340 325 253 236 233 232 234 238 243 242 238 239 242 252 269 242 203 205 207 208 213 215 214 215 213 211 213 213 215 219 217 215 217 217 217 218 220 222 222 223 224 227 233 234 230 230 230 229 230 222 209 211 216 220 226 228 230 231 230 230 237 242 242 247 250
343 342 340 338 331 317 297 286 285 285 288 292 297 314 319 320 339 356 3 6 5 7 0 344 336 280 243 237 236 236 238 245 246 245 245 240 238 255 268 248 215 205 209 215 213 211 212 211 210 212 215 217 219 218 217 217 216 216 217 218 219 219 219 220 223 227 231 230 228 228 231 231 221 210 215 219 223 227 226 223 225 229 227 230 240 242 246 254
338 340 338 336 327 311 290 277 277 280 283 285 287 297 306 304 317 345 359 1 359 2 3 353 340 303 264 251 249 247 245 248 248 246 244 238 231 230 238 248 234 216 218 220 215 211 208 209 209 209 211 216 218 218 218 216 216 216 216 217 218 218 219 219 222 227 231 233 230 226 228 232 225 213 216 223 227 230 228 216 209 218 222 219 229 236 237 244
329 336 336 334 324 307 287 270 267 271 275 277 278 282 293 292 296 326 346 354 356 356 357 354 347 324 279 262 260 258 254 253 252 248 242 236 231 226 227 236 235 228 227 220 213 211 208 207 209 208 208 211 214 217 218 217 218 219 218 218 218 219 220 220 221 226 230 232 230 226 226 231 230 219 217 226 233 237 230 210 196 205 211 204 209 218 221 228
317 329 334 331 319 304 286 267 261 262 264 266 266 266 278 285 279 287 316 331 347 352 353 351 349 342 303 267 261 261 258 256 254 246 238 233 231 229 229 233 233 236 237 223 211 211 211 209 208 209 211 211 209 213 217 218 220 221 220 219 219 219 220 221 221 224 227 229 231 233 230 230 232 225 220 226 238 246 235 205 188 204 214 201 195 200 209 220
307 319 328 329 318 303 285 264 256 255 257 258 260 258 264 276 271 259 278 308 324 340 349 351 348 348 337 293 264 260 262 258 250 238 229 225 226 229 227 222 223 235 246 229 210 208 210 208 206 208 212 214 209 206 210 215 218 220 220 219 219 219 219 221 222 223 225 224 226 232 232 231 233 231 225 225 232 245 243 219 196 204 218 210 199 196 204 216
300 309 321 325 317 301 281 260 249 248 251 254 256 256 255 262 264 252 249 278 301 321 341 353 356 353 352 336 287 262 263 261 243 226 222 219 220 227 227 219 215 225 244 235 209 202 204 203 199 202 207 210 210 206 206 212 215 217 219 219 218 218 219 221 222 223 225 224 222 226 228 230 233 232 229 229 230 237 246 242 229 222 223 219 213 209 211 215
295 302 313 320 316 300 278 255 243 242 246 250 253 255 252 250 252 247 239 248 278 309 328 344 357 359 356 351 327 274 256 259 241 218 215 217 216 220 225 226 221 212 228 238 211 199 198 194 191 197 204 204 205 208 209 212 214 215 217 219 218 218 219 221 223 225 226 227 227 228 229 230 234 234 232 233 236 237 240 248 249 246 240 231 227 226 223 224
291 294 304 313 313 299 275 251 238 237 242 249 254 253 249 244 241 238 235 236 253 287 314 332 347 356 356 353 343 303 257 249 241 217 210 213 217 219 222 226 228 207 194 224 216 199 195 194 189 192 200 201 201 205 209 211 214 214 216 218 219 219 220 221 223 225 227 228 228 229 231 231 233 236 235 234 237 239 239 241 247 254 253 246 241 237 232 236
286 287 295 305 307 295 276 252 236 235 238 244 250 250 246 241 234 230 232 233 240 256 276 318 339 354 359 354 348 328 276 239 234 222 211 212 216 219 222 226 227 211 181 185 215 201 193 194 193 190 194 199 200 203 206 209 211 213 214 216 218 219 221 222 224 226 228 229 229 229 232 233 233 235 237 237 236 239 241 239 236 242 249 250 248 244 241 246